"America/Chicago Time","Lifetime Energy (kWh)","Power (W)","AC Volts RMS (V) ","AC Amps RMS (mA)","Grid Frequency (Hz)","Inverter Temperature (C)"
"03/12/12 08:49:04","32.6927","0.0","212.77","0","60.03","8"
"03/12/12 08:54:05","32.6933","12.8","212.63","115","60.03","8"
"03/12/12 08:59:04","32.694","14.1","212.08","33","60.0","9"
"03/12/12 09:04:04","32.6951","16.8","213.61","23","60.03","9"
"03/12/12 09:09:05","32.6961","17.6","213.87","59","60.03","9"
"03/12/12 09:14:04","32.6973","13.1","213.48","38","60.03","9"
"03/12/12 09:19:04","32.6983","3.9","213.22","190","60.03","9"
"03/12/12 09:24:03","32.6991","0.0","213.15","0","60.03","9"
"03/12/12 09:29:04","32.6998","8.0","212.57","0","60.0","9"
"03/12/12 09:34:05","32.7008","24.1","213.37","27","60.03","9"
"03/12/12 09:39:05","32.7023","12.1","213.12","263","60.03","10"
"03/12/12 09:44:05","32.7039","20.1","213.01","37","60.03","10"
"03/12/12 09:49:05","32.7053","24.1","213.14","299","60.03","10"
"03/12/12 09:54:05","32.7073","34.2","213.39","293","60.03","10"
"03/12/12 09:59:03","32.7094","31.0","213.13","269","60.03","10"
"03/12/12 10:04:04","32.7123","16.6","212.91","4","60.03","11"
"03/12/12 10:09:03","32.7139","21.2","212.92","58","60.0","11"
"03/12/12 10:14:04","32.7157","22.6","213.74","270","60.03","11"
"03/12/12 10:19:04","32.7176","12.7","212.22","258","60.03","11"
"03/12/12 10:24:05","32.7199","41.4","213.84","96","60.0","11"
"03/12/12 10:29:04","32.7228","43.7","214.28","309","60.03","11"
"03/12/12 10:34:04","32.7263","38.0","214.12","376","60.03","12"
"03/12/12 10:39:04","32.7296","29.4","214.19","297","60.03","12"
"03/12/12 10:44:05","32.7323","27.6","213.61","93","60.03","12"
"03/12/12 10:49:05","32.7349","39.7","213.83","292","60.0","13"
"03/12/12 10:54:05","32.7377","27.0","213.73","200","60.03","13"
"03/12/12 10:59:05","32.7397","32.5","213.85","233","60.03","13"
"03/12/12 11:04:04","32.7414","29.0","213.13","105","60.03","13"
"03/12/12 11:09:04","32.7432","13.1","213.89","138","60.03","13"
"03/12/12 11:14:04","32.745","22.5","213.99","221","60.03","13"
"03/12/12 11:19:04","32.7465","15.9","214.0","5","60.03","12"
"03/12/12 11:24:04","32.7479","35.3","213.42","273","60.03","12"
"03/12/12 11:29:05","32.7505","28.7","214.23","273","60.0","12"
"03/12/12 11:34:05","32.7529","31.0","213.6","21","60.0","11"
"03/12/12 11:39:05","32.7549","36.4","213.16","240","60.03","12"
"03/12/12 11:44:03","32.7579","40.8","214.18","134","60.03","12"
"03/12/12 11:49:04","32.7612","32.4","213.35","83","60.0","13"
"03/12/12 11:54:04","32.7634","24.9","213.99","92","60.07","12"
"03/12/12 11:59:05","32.7654","28.4","214.15","253","60.03","12"
"03/12/12 12:04:04","32.768","37.9","214.03","91","60.03","12"
"03/12/12 12:09:04","32.7713","41.0","214.01","394","60.03","13"
"03/12/12 12:14:04","32.7752","54.3","214.7","226","60.0","13"
"03/12/12 12:19:05","32.7791","46.5","214.56","288","60.0","14"
"03/12/12 12:24:04","32.7829","48.0","214.92","94","60.0","15"
"03/12/12 12:29:04","32.7866","49.7","213.9","356","60.03","15"
"03/12/12 12:34:04","32.7898","40.9","213.45","279","60.03","15"
"03/12/12 12:39:04","32.7928","33.6","214.11","104","60.03","15"
"03/12/12 12:44:05","32.7957","34.9","213.69","269","60.0","15"
"03/12/12 12:49:03","32.7979","37.5","213.94","288","60.03","15"
"03/12/12 12:54:05","32.8013","50.4","213.71","140","60.0","15"
"03/12/12 12:59:05","32.8045","32.2","213.67","272","60.03","15"
"03/12/12 13:04:05","32.8072","27.4","213.8","186","60.03","15"
"03/12/12 13:09:05","32.8094","33.5","213.37","41","60.03","15"
"03/12/12 13:14:04","32.8113","34.1","213.54","261","60.03","15"
"03/12/12 13:19:05","32.8144","38.9","213.58","128","60.03","15"
"03/12/12 13:24:05","32.8182","36.8","214.53","76","60.03","15"
"03/12/12 13:29:04","32.8219","50.3","213.93","377","60.03","16"
"03/12/12 13:34:05","32.8259","57.4","213.6","84","60.07","17"
"03/12/12 13:39:05","32.8297","42.6","214.28","424","60.03","17"
"03/12/12 13:44:04","32.8333","47.0","214.26","201","60.0","18"
"03/12/12 13:49:05","32.8365","59.1","214.79","153","60.03","18"
"03/12/12 13:54:05","32.8398","44.7","215.0","236","60.03","18"
"03/12/12 13:59:05","32.8434","58.0","214.74","135","60.0","19"
"03/12/12 14:04:04","32.847","42.9","214.24","94","60.07","19"
"03/12/12 14:09:04","32.85","40.4","215.12","311","60.0","18"
"03/12/12 14:14:04","32.8552","126.2","216.16","591","60.03","19"
"03/12/12 14:19:05","32.8676","158.9","216.35","735","60.03","21"
"03/12/12 14:24:05","32.8762","96.2","215.34","467","60.0","21"
"03/12/12 14:29:05","32.8826","72.7","215.49","362","60.03","21"
"03/12/12 14:34:04","32.8874","44.7","214.4","349","60.0","21"
"03/12/12 14:39:05","32.8911","57.6","213.65","88","60.03","20"
"03/12/12 14:44:04","32.895","55.9","213.48","212","60.03","20"
"03/12/12 14:49:05","32.8989","56.3","214.29","160","60.03","20"
"03/12/12 14:54:05","32.9029","68.2","214.5","202","60.0","20"
"03/12/12 14:59:05","32.9083","93.5","216.52","449","60.07","20"
"03/12/12 15:04:04","32.9179","112.7","215.83","535","60.03","22"
"03/12/12 15:09:05","32.9257","127.0","216.25","596","60.03","22"
"03/12/12 15:14:04","32.9357","124.4","216.66","581","60.03","23"
"03/12/12 15:19:04","32.9454","127.5","216.06","595","60.0","24"
"03/12/12 15:24:04","32.9567","163.8","216.58","748","60.03","25"
"03/12/12 15:29:04","32.9695","193.0","217.64","870","60.0","26"
"03/12/12 15:34:04","32.9829","184.6","217.14","843","60.03","27"
"03/12/12 15:39:05","32.9957","150.6","217.53","698","60.03","27"
"03/12/12 15:49:04","33.0179","145.2","216.13","675","60.07","28"
"03/12/12 15:54:04","33.0277","116.7","216.05","549","60.03","27"
"03/12/12 15:59:05","33.0349","30.1","214.19","147","60.03","26"
"03/12/12 16:04:05","33.0409","85.8","216.21","421","60.07","26"
"03/12/12 16:09:04","33.0449","31.7","214.47","239","60.03","25"
"03/12/12 16:14:04","33.0471","11.3","214.31","119","60.0","24"
"03/12/12 16:19:04","33.0484","27.9","212.98","29","60.03","22"
"03/12/12 16:24:04","33.05","23.6","214.5","291","60.03","22"
"03/12/12 16:29:04","33.0517","13.0","214.48","11","60.03","21"
"03/12/12 16:34:05","33.0536","37.7","214.64","145","60.03","20"
"03/12/12 16:39:05","33.0569","46.9","215.24","262","60.03","20"
"03/12/12 16:44:05","33.0607","43.6","215.11","84","60.03","20"
"03/12/12 16:49:04","33.0631","25.0","214.72","61","60.0","20"
"03/12/12 16:54:05","33.065","16.8","215.1","69","60.03","20"
"03/12/12 16:59:04","33.0668","14.0","214.66","18","60.03","20"
"03/12/12 17:04:04","33.0699","63.3","215.24","327","60.07","20"
"03/12/12 17:09:05","33.0734","22.3","213.17","255","60.03","20"
"03/12/12 17:14:05","33.0743","6.9","212.6","186","60.03","20"
"03/12/12 17:19:05","33.075","0.0","213.5","0","60.0","19"
"03/12/12 17:24:06","33.0754","0.0","213.05","0","60.03","18"
"03/12/12 17:29:04","33.0757","12.6","213.12","0","60.03","18"
"03/12/12 17:34:04","33.0761","6.4","213.46","239","60.03","18"
"03/12/12 17:39:05","33.0766","13.7","214.06","2","60.03","17"
"03/12/12 17:44:05","33.0772","15.8","214.03","0","60.0","17"
"03/12/12 17:49:05","33.0776","10.7","213.5","49","60.03","17"
"03/13/12 08:09:09","33.0787","12.1","213.56","0","60.0","6"
"03/13/12 08:14:04","33.0797","15.0","213.11","3","60.03","6"
"03/13/12 08:19:05","33.0818","26.9","214.29","66","60.03","7"
"03/13/12 08:24:05","33.0841","40.5","214.02","309","60.03","7"
"03/13/12 08:29:05","33.0908","74.6","215.19","373","60.0","8"
"03/13/12 08:34:05","33.0984","103.7","215.98","492","60.03","9"
"03/13/12 08:39:04","33.1073","99.4","215.24","481","60.03","9"
"03/13/12 08:44:05","33.1158","41.4","215.16","279","60.07","10"
"03/13/12 08:49:04","33.1241","136.3","216.26","638","60.03","11"
"03/13/12 08:54:05","33.132","69.0","215.07","344","60.03","11"
"03/13/12 08:59:04","33.1378","52.8","215.69","389","60.03","11"
"03/13/12 09:04:06","33.1443","44.1","215.13","124","60.0","11"
"03/13/12 09:09:05","33.1526","73.0","215.8","368","60.03","11"
"03/13/12 09:14:05","33.165","165.0","217.49","754","60.03","12"
"03/13/12 09:19:05","33.1773","156.0","216.53","721","60.0","12"
"03/13/12 09:24:05","33.1897","164.6","216.55","756","60.0","13"
"03/13/12 09:29:06","33.2025","164.9","216.83","758","60.03","13"
"03/13/12 09:34:04","33.2155","170.1","217.3","776","60.0","13"
"03/13/12 09:39:06","33.2291","175.8","218.15","800","60.0","13"
"03/13/12 09:44:04","33.2428","179.5","217.43","817","60.03","13"
"03/13/12 09:49:06","33.2571","184.7","218.14","834","60.03","13"
"03/13/12 09:54:04","33.2716","189.3","218.35","858","60.03","13"
"03/13/12 09:59:05","33.2865","194.0","218.1","880","60.03","14"
"03/13/12 10:04:04","33.3017","196.7","216.89","895","60.03","14"
"03/13/12 10:09:06","33.3172","196.3","216.83","897","60.03","15"
"03/13/12 10:14:05","33.3325","196.2","217.91","887","60.03","15"
"03/13/12 10:19:05","33.3478","197.0","217.78","885","60.0","15"
"03/13/12 10:24:05","33.3631","196.6","218.85","889","60.0","15"
"03/13/12 10:29:06","33.3785","196.0","218.63","885","60.03","15"
"03/13/12 10:34:05","33.3938","195.8","217.99","888","60.0","15"
"03/13/12 10:39:06","33.4091","196.8","218.57","889","60.03","16"
"03/13/12 10:44:05","33.4244","196.3","218.6","885","60.0","17"
"03/13/12 10:49:05","33.4396","195.5","218.42","883","60.03","17"
"03/13/12 10:54:05","33.4549","196.6","219.4","880","60.0","17"
"03/13/12 10:59:06","33.4702","196.6","219.45","880","60.0","17"
"03/13/12 11:04:06","33.4856","195.8","219.11","878","60.0","17"
"03/13/12 11:09:05","33.5008","195.8","218.7","886","60.03","18"
"03/13/12 11:14:05","33.5161","196.0","219.24","881","60.0","18"
"03/13/12 11:19:04","33.5313","196.0","219.47","878","60.0","18"
"03/13/12 11:24:05","33.5467","195.4","217.95","886","60.0","18"
"03/13/12 11:29:06","33.5619","195.9","218.56","882","60.0","18"
"03/13/12 11:34:04","33.5771","195.9","218.5","880","60.03","18"
"03/13/12 11:39:04","33.5923","195.3","218.33","881","60.03","18"
"03/13/12 11:44:05","33.6077","195.9","218.95","883","60.03","18"
"03/13/12 11:49:06","33.6229","195.5","218.77","883","60.03","18"
"03/13/12 11:54:05","33.6382","195.5","218.75","884","60.03","18"
"03/13/12 11:59:05","33.6533","196.1","218.56","884","60.03","18"
"03/13/12 12:04:06","33.6687","196.2","218.59","884","60.0","18"
"03/13/12 12:09:05","33.6838","196.0","218.35","881","60.0","18"
"03/13/12 12:14:06","33.6992","196.0","217.98","886","60.03","18"
"03/13/12 12:19:05","33.7143","195.7","216.97","893","60.03","18"
"03/13/12 12:24:04","33.7296","195.8","218.97","883","60.07","18"
"03/13/12 12:29:05","33.7448","195.4","217.89","884","60.03","19"
"03/13/12 12:34:05","33.7601","196.2","218.8","887","60.03","18"
"03/13/12 12:39:05","33.7754","196.4","218.13","890","60.03","19"
"03/13/12 12:44:05","33.7906","194.8","218.58","882","60.03","19"
"03/13/12 12:49:05","33.8058","195.4","218.14","883","60.03","19"
"03/13/12 12:54:06","33.8211","195.8","219.11","879","60.03","19"
"03/13/12 12:59:05","33.8363","195.4","219.25","880","60.07","19"
"03/13/12 13:04:04","33.8515","195.4","217.83","882","60.0","19"
"03/13/12 13:09:05","33.8668","196.1","218.46","881","60.03","19"
"03/13/12 13:14:05","33.8821","195.4","217.7","888","60.03","19"
"03/13/12 13:19:05","33.8973","195.5","217.91","878","60.0","19"
"03/13/12 13:24:04","33.9126","195.6","218.66","881","60.03","19"
"03/13/12 13:29:04","33.9278","196.0","217.92","885","60.03","19"
"03/13/12 13:34:06","33.9431","196.0","218.42","888","60.03","19"
"03/13/12 13:39:05","33.9583","196.2","219.32","881","60.03","19"
"03/13/12 13:44:05","33.9736","195.7","217.98","884","60.03","19"
"03/13/12 13:49:06","33.9888","195.8","218.44","884","60.03","19"
"03/13/12 13:54:05","34.0041","195.8","219.12","886","60.03","20"
"03/13/12 13:59:05","34.0193","196.2","219.1","880","60.03","19"
"03/13/12 14:04:05","34.0346","195.5","218.35","884","60.03","19"
"03/13/12 14:09:05","34.0346","195.8","218.67","884","60.03","19"
"03/13/12 14:14:05","34.0499","195.4","217.89","887","60.0","19"
"03/13/12 14:19:06","34.0652","195.7","218.6","883","60.03","20"
"03/13/12 14:24:06","34.0806","196.1","218.39","886","60.03","20"
"03/13/12 14:29:06","34.0959","196.2","218.69","882","60.03","20"
"03/13/12 14:34:06","34.1112","196.3","218.19","885","60.0","20"
"03/13/12 14:39:05","34.1264","196.2","218.21","888","60.03","20"
"03/13/12 14:44:05","34.1417","196.5","218.52","879","60.03","19"
"03/13/12 14:49:06","34.1571","196.6","218.25","887","60.0","19"
"03/13/12 14:54:05","34.1724","196.8","218.79","889","60.0","19"
"03/13/12 14:59:06","34.1876","196.4","218.43","881","60.03","19"
"03/13/12 15:04:05","34.203","194.9","217.5","875","60.0","19"
"03/13/12 15:09:05","34.2179","191.6","217.55","868","60.03","19"
"03/13/12 15:14:04","34.2327","187.5","216.75","853","60.0","19"
"03/13/12 15:19:05","34.2472","183.9","217.67","834","60.0","19"
"03/13/12 15:24:05","34.2613","179.2","217.46","818","60.0","18"
"03/13/12 15:29:05","34.2751","175.1","217.64","798","60.0","18"
"03/13/12 15:34:05","34.2887","171.1","217.17","782","60.03","18"
"03/13/12 15:39:06","34.3018","165.4","217.02","760","60.03","18"
"03/13/12 15:44:06","34.3146","161.4","216.73","746","60.03","18"
"03/13/12 16:02:45","34.3586","141.6","215.95","657","60.03","18"
"03/13/12 16:07:45","34.3695","136.7","216.53","641","60.03","17"
"03/13/12 16:12:44","34.3799","131.3","216.57","612","60.03","18"
"03/13/12 16:17:44","34.3899","125.8","216.43","592","60.0","18"
"03/13/12 16:22:45","34.3995","120.0","215.64","565","60.0","17"
"03/13/12 16:27:45","34.4086","114.7","215.55","545","60.07","17"
"03/13/12 16:32:45","34.4174","109.2","215.35","522","60.03","17"
"03/13/12 16:37:45","34.4256","103.8","215.91","494","60.03","17"
"03/13/12 16:42:45","34.4334","97.8","214.71","473","60.0","17"
"03/13/12 16:47:44","34.4408","91.9","214.44","446","60.03","17"
"03/13/12 16:57:46","34.4542","80.4","215.28","396","60.03","17"
"03/13/12 17:02:45","34.4602","74.8","214.26","372","60.03","17"
"03/13/12 17:07:44","34.4657","68.8","214.41","350","60.07","17"
"03/13/12 17:12:45","34.4709","63.4","213.62","326","60.03","17"
"03/13/12 17:17:44","34.475","48.9","213.07","99","60.03","16"
"03/13/12 17:22:44","34.4789","55.3","213.54","130","60.0","16"
"03/13/12 17:27:46","34.4827","41.0","213.69","202","60.03","16"
"03/13/12 17:32:45","34.4861","34.8","213.42","95","60.03","15"
"03/13/12 17:37:45","34.489","40.7","214.02","297","60.03","15"
"03/13/12 17:42:45","34.4916","35.0","213.29","114","59.96","15"
"03/13/12 17:47:45","34.4938","16.4","212.99","81","60.03","15"
"03/13/12 17:52:44","34.4957","20.8","213.98","263","60.03","15"
"03/13/12 17:57:46","34.4972","13.0","212.96","48","60.07","14"
"03/13/12 18:02:45","34.4984","12.4","213.85","20","60.03","14"
"03/13/12 18:07:44","34.4993","0.0","213.63","108","60.03","13"
"03/13/12 18:12:46","34.5","12.9","212.92","1","60.03","13"
"03/13/12 18:17:46","34.5004","12.3","213.02","1","60.0","13"
"03/14/12 12:26:07","35.1341","193.3","217.76","889","60.0","29"
"03/14/12 12:31:06","35.149","195.5","216.21","896","60.03","30"
"03/14/12 12:36:06","35.1643","194.9","216.94","887","60.03","32"
"03/14/12 12:41:07","35.1795","195.2","218.35","882","60.03","32"
"03/14/12 12:46:06","35.1947","195.0","218.6","880","60.03","32"
"03/14/12 12:51:06","35.2098","183.6","217.48","834","60.0","32"
"03/14/12 12:56:07","35.218","61.1","214.99","439","60.03","30"
"03/14/12 13:01:07","35.2319","164.7","216.58","758","60.0","31"
"03/14/12 13:06:05","35.247","193.8","217.91","870","60.0","32"
"03/14/12 13:11:06","35.2622","197.6","219.13","882","60.03","32"
"03/14/12 13:16:07","35.2776","195.1","218.24","883","60.0","33"
"03/14/12 13:21:07","35.2926","196.6","218.8","885","60.0","33"
"03/14/12 13:26:07","35.3079","196.1","218.04","890","60.03","34"
"03/14/12 13:31:07","35.3225","195.5","217.69","883","60.03","34"
"03/14/12 13:36:05","35.3341","187.6","217.37","852","60.0","34"
"03/14/12 13:41:06","35.3475","167.4","216.52","766","60.0","34"
"03/14/12 13:46:07","35.3624","196.0","218.3","882","60.03","35"
"03/14/12 13:51:07","35.3777","195.5","217.95","886","60.03","36"
"03/14/12 13:56:06","35.3927","196.1","218.62","885","60.03","35"
"03/14/12 14:01:06","35.408","196.0","218.46","882","60.03","36"
"03/14/12 14:06:06","35.4233","195.7","217.87","876","60.03","36"
"03/14/12 14:11:07","35.4386","195.2","218.11","889","60.03","37"
"03/14/12 14:16:07","35.4539","195.9","217.55","886","60.0","38"
"03/14/12 14:21:06","35.4691","194.0","218.45","871","60.0","38"
"03/14/12 14:26:07","35.4841","190.5","218.26","861","60.07","38"
"03/14/12 14:31:06","35.4988","188.6","219.05","853","60.03","38"
"03/14/12 14:36:06","35.5135","188.7","218.59","853","60.03","38"
"03/14/12 14:41:07","35.5282","186.3","218.09","843","60.03","38"
"03/14/12 14:46:06","35.5425","182.6","217.88","829","60.0","38"
"03/14/12 14:51:06","35.5566","180.2","218.17","818","60.03","38"
"03/14/12 14:56:07","35.5706","177.0","218.25","806","60.03","37"
"03/14/12 15:01:05","35.5843","173.6","217.66","794","60.03","37"
"03/14/12 15:06:07","35.5977","167.9","217.73","765","60.0","37"
"03/14/12 15:11:07","35.6106","164.8","218.42","749","60.03","38"
"03/14/12 15:16:06","35.6232","160.1","217.45","735","60.0","37"
"03/14/12 15:21:06","35.6355","156.9","216.95","720","60.03","37"
"03/14/12 15:26:07","35.6478","152.8","216.06","702","60.03","37"
"03/14/12 15:31:07","35.6596","150.6","217.25","694","60.03","36"
"03/14/12 15:36:07","35.6709","135.1","216.22","633","60.03","36"
"03/14/12 15:41:05","35.6811","127.4","216.27","602","60.0","37"
"03/14/12 15:46:05","35.6908","121.5","216.45","571","60.03","37"
"03/14/12 15:51:07","35.7","111.7","215.57","531","60.0","37"
"03/14/12 15:56:07","35.709","118.4","215.23","557","60.0","37"
"03/14/12 16:01:07","35.718","114.1","215.68","539","60.07","37"
"03/14/12 16:06:05","35.7269","116.4","216.86","546","60.03","37"
"03/14/12 16:11:06","35.7354","109.6","216.01","517","60.03","37"
"03/14/12 16:16:07","35.7437","103.1","216.25","487","60.0","37"
"03/14/12 16:21:06","35.7512","94.3","215.11","457","60.0","37"
"03/14/12 16:26:07","35.7586","89.9","215.26","438","60.03","37"
"03/14/12 16:31:07","35.7655","84.1","214.98","415","60.07","37"
"03/14/12 16:36:07","35.7721","87.5","214.97","426","60.03","36"
"03/14/12 16:41:07","35.7788","84.6","215.43","412","60.03","35"
"03/14/12 16:46:07","35.7851","76.8","214.94","379","60.0","33"
"03/14/12 16:51:07","35.7907","67.6","214.9","343","60.03","32"
"03/14/12 16:56:05","35.7961","68.4","214.25","346","60.0","30"
"03/14/12 17:01:06","35.8012","62.3","215.21","321","60.07","28"
"03/14/12 17:06:06","35.8052","54.0","215.08","335","60.07","27"
"03/14/12 17:11:07","35.809","53.0","214.17","151","60.07","26"
"03/14/12 17:16:05","35.8126","47.5","213.87","328","60.03","25"
"03/14/12 17:21:07","35.8157","37.9","213.21","98","60.0","25"
"03/14/12 17:26:07","35.8189","41.6","214.13","233","60.03","24"
"03/14/12 17:31:05","35.8215","26.5","213.0","130","60.0","24"
"03/14/12 17:36:06","35.8236","27.8","213.76","19","60.03","23"
"03/14/12 17:41:06","35.8253","17.5","213.39","146","60.03","23"
"03/14/12 17:46:06","35.8264","13.6","212.96","10","60.03","22"
"03/14/12 17:51:07","35.8272","14.7","213.34","8","60.03","21"
"03/14/12 17:56:07","35.828","0.0","212.99","0","60.03","20"
"03/14/12 18:01:07","35.8286","4.6","213.03","0","60.03","20"
"03/14/12 18:06:07","35.8293","0.0","213.33","227","60.03","19"
"03/14/12 18:11:06","35.83","14.3","212.43","0","60.07","19"
"03/14/12 18:16:07","35.8306","13.7","213.21","20","60.0","19"
"03/14/12 18:21:06","35.8312","12.5","212.98","34","60.0","19"
"03/14/12 18:26:06","35.8316","10.9","213.51","66","60.03","18"
"03/14/12 18:31:07","35.8318","0.0","213.72","0","60.03","18"
"03/15/12 07:21:12","35.8324","0.0","213.71","0","60.03","8"
"03/15/12 07:26:08","35.8329","0.0","213.57","210","60.03","8"
"03/15/12 07:31:06","35.8339","11.5","213.6","2","60.0","8"
"03/15/12 07:36:06","35.8353","16.4","214.13","13","60.03","9"
"03/15/12 07:41:07","35.8371","25.6","214.25","195","60.03","9"
"03/15/12 07:46:07","35.8392","27.4","214.46","68","60.0","9"
"03/15/12 07:51:06","35.8416","33.3","214.12","92","60.03","9"
"03/15/12 07:56:07","35.8442","37.9","214.1","296","60.03","10"
"03/15/12 08:01:06","35.847","39.0","214.04","150","60.0","10"
"03/15/12 08:06:06","35.8506","43.6","215.25","324","60.03","11"
"03/15/12 08:11:07","35.8545","55.8","215.28","82","60.03","11"
"03/15/12 08:16:07","35.8583","47.0","215.92","84","60.03","11"
"03/15/12 08:21:08","35.8622","49.9","215.82","348","60.0","12"
"03/15/12 08:26:06","35.8662","44.9","214.66","390","60.03","13"
"03/15/12 08:31:06","35.8703","45.8","215.2","237","60.0","13"
"03/15/12 08:36:07","35.8741","61.6","215.66","267","60.0","13"
"03/15/12 08:41:06","35.8779","49.4","215.27","174","60.0","13"
"03/15/12 08:46:06","35.8819","43.5","215.4","393","60.03","13"
"03/15/12 08:51:06","35.8875","90.1","216.3","437","60.03","13"
"03/15/12 08:56:06","35.8945","88.7","216.95","427","60.03","14"
"03/15/12 09:01:07","35.9014","89.4","216.63","427","60.0","14"
"03/15/12 09:06:07","35.9086","99.5","216.04","476","60.0","15"
"03/15/12 09:11:06","35.916","86.1","216.12","421","60.03","15"
"03/15/12 09:16:07","35.9221","75.0","216.16","373","60.0","15"
"03/15/12 09:21:07","35.9278","69.3","216.61","347","60.0","15"
"03/15/12 09:26:08","35.9334","86.7","216.39","423","60.03","15"
"03/15/12 09:31:06","35.9404","87.7","216.32","424","60.0","15"
"03/15/12 09:36:06","35.9476","93.0","216.54","446","60.0","15"
"03/15/12 09:41:07","35.9551","95.2","217.82","449","60.03","15"
"03/15/12 09:46:07","35.9632","108.1","217.32","514","60.0","16"
"03/15/12 09:51:06","35.9716","118.6","217.13","553","60.0","16"
"03/15/12 09:56:07","35.9812","126.1","217.23","592","60.0","17"
"03/15/12 10:01:06","35.9912","132.4","218.12","613","60.0","18"
"03/15/12 10:06:06","36.0007","107.7","217.24","513","60.03","18"
"03/15/12 10:11:07","36.0084","95.2","216.7","461","60.03","18"
"03/15/12 10:16:07","36.0153","82.3","217.11","403","60.0","18"
"03/15/12 10:21:07","36.0226","100.7","217.31","481","60.0","18"
"03/15/12 10:26:07","36.031","102.9","216.77","488","60.0","18"
"03/15/12 10:31:06","36.0387","95.3","215.91","459","60.03","18"
"03/15/12 10:36:07","36.0456","84.5","215.56","413","60.03","18"
"03/15/12 10:41:08","36.0529","104.8","215.94","497","60.03","18"
"03/15/12 10:46:06","36.0608","110.4","216.04","522","60.03","18"
"03/15/12 10:51:06","36.0701","135.3","216.6","629","60.03","18"
"03/15/12 10:56:06","36.0817","152.1","216.47","707","60.03","19"
"03/15/12 11:01:07","36.0936","157.0","216.6","725","59.96","19"
"03/15/12 11:06:07","36.1071","172.2","216.71","793","60.0","20"
"03/15/12 11:11:06","36.1206","172.2","217.44","787","60.0","22"
"03/15/12 11:16:07","36.1349","195.2","217.79","878","60.03","23"
"03/15/12 11:21:07","36.15","192.9","217.93","871","60.0","24"
"03/15/12 11:26:06","36.1649","196.3","218.13","886","60.0","25"
"03/15/12 11:31:07","36.1802","194.9","218.38","881","60.03","25"
"03/15/12 11:36:07","36.1948","176.4","216.56","810","60.07","26"
"03/15/12 11:41:08","36.2081","173.6","217.35","793","60.03","26"
"03/15/12 11:46:06","36.2213","173.1","216.77","791","60.0","26"
"03/15/12 11:51:07","36.2348","169.8","217.22","777","60.0","26"
"03/15/12 11:56:06","36.2479","197.1","217.76","893","60.07","26"
"03/15/12 12:01:06","36.2632","196.9","217.71","892","60.03","27"
"03/15/12 12:06:08","36.2786","196.5","217.37","887","60.03","28"
"03/15/12 12:11:07","36.2939","196.0","217.24","891","60.03","28"
"03/15/12 12:16:08","36.3092","196.1","217.23","885","60.0","29"
"03/15/12 12:21:06","36.3242","177.2","216.78","809","60.03","30"
"03/15/12 12:26:06","36.3388","190.4","217.2","865","60.03","31"
"03/15/12 12:31:07","36.354","196.0","218.06","887","60.0","32"
"03/15/12 12:36:07","36.3694","196.7","217.67","887","60.03","32"
"03/15/12 12:41:08","36.3847","196.0","217.82","885","60.03","33"
"03/15/12 12:46:06","36.3999","196.2","217.71","894","60.0","34"
"03/15/12 12:51:07","36.4152","195.9","217.55","888","60.07","34"
"03/15/12 12:56:07","36.4306","196.6","218.22","879","60.0","35"